Regional Weather Roundup
Issued by NWS

Home | Current Version | Previous Version | Graphics & Text | Print | Product List | Glossary On
Versions: 1 2 3 4 5 6 7 8 9 10 11 12 13 14 15 16 17 18 19 20 21 22 23 24 25 26 27 28 29 30 31 32 33 34 35 36 37 38 39 40 41 42 43 44 45 46 47 48 49 50
014
ASUS45 KBOI 051810
RWRID

IDAHO REGIONAL WEATHER ROUNDUP
NATIONAL WEATHER SERVICE BOISE ID
1100 AM MST FRI FEB 05 2016

NOTE: "FAIR" INDICATES FEW OR NO CLOUDS BELOW 12000 FEET
WITH NO SIGNIFICANT WEATHER AND/OR OBSTRUCTIONS TO VISIBILITY

IDZ012-014-051900-
SOUTHWEST IDAHO


CITY           SKY/WX    TMP DP  RH WIND       PRES   REMARKS
BOISE          FOG       30  30 100 CALM      30.55R VSB<1/4
CALDWELL       FOG       30  29  96 CALM      30.58S VSB<1/4
MOUNTAIN HOME  SUNNY     34  34 100 E10       30.55S WCI  26
$$

IDZ016-017-051900-
SOUTHCENTRAL IDAHO


CITY           SKY/WX    TMP DP  RH WIND       PRES   REMARKS
BURLEY         CLOUDY    30  25  81 NE6       30.53R WCI  24
JEROME         CLOUDY    28  25  88 NE15      30.54R WCI  16
TWIN FALLS     SUNNY     37  27  67 S5        30.53S WCI  33
$$

IDZ019>023-051900-
SOUTHEAST IDAHO


CITY           SKY/WX    TMP DP  RH WIND       PRES   REMARKS
IDAHO FALLS    CLOUDY    18  15  88 N7        30.56R FOG     WCI   9
POCATELLO      CLOUDY    20  18  92 NW3       30.56S
REXBURG        CLOUDY    19  18  95 CALM      30.54S FOG
$$

IDZ006-010-011-018-031-032-051900-
CENTRAL IDAHO MOUNTAINS


CITY           SKY/WX    TMP DP  RH WIND       PRES   REMARKS
MCCALL         CLOUDY    26  25  96 S5        30.46S WCI  20
HAILEY           N/A     25  16  68 W6        30.50S WCI  18
STANLEY          N/A     20  13  74 CALM      30.48S
SALMON         CLOUDY    19  14  79 CALM      30.53R
CHALLIS        SUNNY     20  13  74 NE3       30.49S
$$

IDZ002-004-006-007-026-051900-
NORTHERN IDAHO


CITY           SKY/WX    TMP DP  RH WIND       PRES   REMARKS
LEWISTON       MOSUNNY   46  34  62 S17       30.40F
LOWELL           N/A     36  34  92 N6        30.51S WCI  31
COEUR D`ALENE  MOSUNNY   39  36  87 SE8       30.34F WCI  34
MULLAN PASS    HAZE      30  25  81 VRB3      30.31R VSB 1/4
$$




USA.gov is the U.S. government's official web portal to all federal, state and local government web resources and services.